C/1999 G1 ( LINEAR )

Japanese version
Home page
Updated on May 27, 2001

---------------------------------------------------------------------

* Profile

Discovery Date April 7, 1999
Magnitude 18.9 mag
Discoverer Lincoln Laboratory Near-Earth Asteroid Research project

* Pictures

* Orbital Elements

    Orbital elements by K. Muraoka,
    from 42 observations    1999 Apr. 8 to May 13,
    m.e. =  +/- 0.92 arc seconds.

          T  =  1998 July 31.9308  TT
       Peri. =  136.0145   
       Node  =   23.4840   (2000.0)
       Incl. =   76.3145   
          q  =    4.040547  AU
          e  =    0.845170 
          a  =   26.096670  AU
          n  =    0.0073931
          P  =  133.32     years

* Finding Charts

* Magnitudes Graph

        m1 = 8.0 + 5 log d + 10.0 log r

---------------------------------------------------------------------

The orbital elements are calculated by Kenji Muraoka.
The charts are made with StellaNavigator Ver.2.0 for Windows (AstroArts / ASCII).
The magnitudes graphs are made with Comet for Windows.

---------------------------------------------------------------------

Copyright(C) Seiichi Yoshida (comet@aerith.net). All rights reserved.